This demonstration page uses our WeatherBlox Daily Observations layout. Learn more.

41.55636, -103.73856

Hourly Observations for May 18, 2015

Temp ( °F °C ) Dew Point ( °F °C ) Humidity (%) Winds ( mph kmh ) Pressure ( in mb ) Visibility ( mi km ) Precip ( " mm )
12:53 am 00:53 Clear 43 6.1 36 2.2 76 76 WNW 9 15 30.24 1024 10 16.0934 0 0
1:53 am 01:53 Partly Cloudy 41 5 35 1.7 79 79 NW 12 19 30.24 1024 10 16.0934 0 0
2:39 am 02:39 Mostly Cloudy 41 5 36 2.2 82 82 WNW 8 13 30.33 1027 10 16.0934 0 0
2:48 am 02:48 Mostly Cloudy 41 5 36 2 81 81 NW 3 6 30.33 1027 10 16.0934 0 0
2:53 am 02:53 Cloudy 41 5 36 2.2 82 82 N 3 6 30.27 1025 10 16.0934 0 0
3:03 am 03:03 Cloudy 43 6 37 3 81 81 NW 6 9 30.33 1027 10 16.0934 0 0
3:53 am 03:53 Cloudy 42 5.6 37 2.8 82 82 NW 7 11 30.26 1025 10 16.0934 0 0
4:17 am 04:17 Cloudy 43 6.1 37 2.8 80 80 N 7 11 30.33 1027 10 16.0934 0 0
4:50 am 04:50 Cloudy 43 6 36 2 76 76 NNW 7 11 30.33 1027 10 16.0934 0 0
4:53 am 04:53 Cloudy 43 6.1 36 2.2 76 76 NNW 7 11 30.27 1025 10 16.0934 0 0
5:05 am 05:05 Cloudy 43 6.1 36 2.2 76 76 N 8 13 30.36 1028 10 16.0934 0 0
5:45 am 05:45 Cloudy 43 6.1 36 2.2 76 76 NNW 7 11 30.36 1028 10 16.0934 0 0
5:53 am 05:53 Cloudy 43 6.1 36 2.2 76 76 NNW 7 11 30.3 1026 10 16.0934 0 0
6:21 am 06:21 Cloudy 43 6.1 35 1.7 74 74 NNW 13 20 30.36 1028 10 16.0934 0 0
6:53 am 06:53 Cloudy 44 6.7 36 2.2 73 73 NW 10 17 30.32 1027 10 16.0934 0 0
7:53 am 07:53 Cloudy 48 8.9 36 2.2 63 63 NNW 9 15 30.34 1027 10 16.0934 0 0
8:21 am 08:21 Cloudy 47 8.3 35 1.7 63 63 N 12 19 30.36 1028 10 16.0934 0 0
8:53 am 08:53 Cloudy 49 9.4 35 1.7 59 59 N 10 17 30.35 1028 10 16.0934 0 0
9:53 am 09:53 Mostly Cloudy 51 10.6 36 2.2 56 56 NNW 6 9 30.35 1028 10 16.0934 0 0
10:53 am 10:53 Mostly Cloudy 52 11.1 36 2.2 55 55 NW 5 7 30.36 1028 10 16.0934 0 0
11:53 am 11:53 Cloudy 55 12.8 36 2.2 49 49 Calm 30.35 1028 10 16.0934 0 0
12:53 pm 12:53 Cloudy 55 12.8 32 0 42 42 Calm 30.34 1027 10 16.0934 0 0
1:53 pm 13:53 Cloudy 58 14.4 34 1.1 41 41 VRB 3 6 30.31 1026 10 16.0934 0 0
2:53 pm 14:53 Cloudy 61 16.1 36 2.2 39 39 undefined N/A 30.29 1026 10 16.0934 0 0
3:53 pm 15:53 Cloudy 58 14.4 37 2.8 46 46 SSE 9 15 30.28 1025 10 16.0934 0 0
4:53 pm 16:53 Cloudy 58 14.4 39 3.9 50 50 SE 9 15 30.27 1025 10 16.0934 0 0
5:53 pm 17:53 Cloudy 57 13.9 39 3.9 51 51 ENE 13 20 30.27 1025 10 16.0934 0 0
6:53 pm 18:53 Cloudy 56 13.3 38 3.3 51 51 E 13 20 30.28 1026 10 16.0934 0 0
7:53 pm 19:53 Cloudy 55 12.8 37 2.8 51 51 E 15 24 30.27 1025 10 16.0934 0 0
8:53 pm 20:53 Cloudy 54 12.2 37 2.8 53 53 E 15 24 30.27 1025 10 16.0934 0 0
9:53 pm 21:53 Cloudy 53 11.7 37 2.8 55 55 E 13 20 30.28 1025 10 16.0934 0 0
10:53 pm 22:53 Cloudy 53 11.7 37 2.8 55 55 E 13 20 30.27 1025 10 16.0934 0 0
11:53 pm 23:53 Cloudy 52 11.1 36 2.2 55 55 E 13 20 30.25 1025 10 16.0934 0 0

Powered by AerisWeather